Terminal Aerodrome Forecast
Issued by NWS Omaha/Valley, NE

Home | Current Version | Previous Version | Text Only | Print | Product List | Glossary On
Versions: 1 2 3 4 5 6 7 8 9 10 11 12 13 14 15 16 17 18 19 20 21 22 23 24 25 26 27 28 29 30 31 32 33 34 35 36 37 38 39
000
FTUS43 KOAX 201120
TAFOMA
TAF
KOMA 201120Z 2012/2112 20006KT P6SM SCT060 BKN150
     FM201500 30007KT P6SM BKN110
     FM201900 32010KT P6SM SCT100
     FM210100 32006KT P6SM SKC=

USA.gov is the U.S. government's official web portal to all federal, state and local government web resources and services.